• In Uzbekistan
  • List of Countries
  • For 7 days
  • Water Temperature
  • Satellite Maps
  • Weather Map
  • Weather Widgets
  • user-avatar
    Login

    Hourly Weather Hrazdan

    Today, 21 February, Wednesday

    Time Temperature Precipitation Wind Pressure Humidity
    00:00 -2°C° 0 mm 1 mps 609 mmHg 68%
    01:00 -2°C° 0 mm 1 mps 609 mmHg 69%
    02:00 -2°C° 0 mm 1 mps 609 mmHg 70%
    03:00 -2°C° 0 mm 1 mps 609 mmHg 72%
    04:00 -3°C° 0 mm 1 mps 609 mmHg 72%
    05:00 -3°C° 0 mm 1 mps 609 mmHg 73%
    06:00 -3°C° 0 mm 1 mps 609 mmHg 74%
    07:00 -2°C° 0 mm 1 mps 609 mmHg 73%
    08:00 -1°C° 0 mm 1 mps 610 mmHg 72%
    09:00 0°C° 0 mm 1 mps 610 mmHg 72%
    10:00 +1°C° 0 mm 1 mps 610 mmHg 71%
    11:00 +2°C° 0 mm 1 mps 610 mmHg 71%
    12:00 +2°C° 0 mm 2 mps 610 mmHg 71%
    13:00 +2°C° 0 mm 2 mps 610 mmHg 71%
    14:00 +2°C° 0 mm 2 mps 609 mmHg 71%
    15:00 +2°C° 0 mm 2 mps 609 mmHg 70%
    16:00 +2°C° 0 mm 1 mps 609 mmHg 73%
    17:00 +1°C° 0 mm 1 mps 609 mmHg 75%
    18:00 0°C° 0 mm 1 mps 608 mmHg 78%
    19:00 -1°C° 0 mm 1 mps 609 mmHg 78%
    20:00 -1°C° 0 mm 1 mps 609 mmHg 79%
    21:00 -1°C° 0 mm 1 mps 609 mmHg 80%
    22:00 -1°C° 0 mm 1 mps 609 mmHg 80%
    23:00 -1°C° 0 mm 1 mps 609 mmHg 79%

    Tomorrow, 22 February, Thursday

    Time Temperature Precipitation Wind Pressure Humidity
    00:00 -1°C° 0 mm 1 mps 609 mmHg 79%
    01:00 -2°C° 0 mm 1 mps 609 mmHg 79%
    02:00 -2°C° 0 mm 1 mps 609 mmHg 79%
    03:00 -2°C° 0 mm 1 mps 609 mmHg 80%
    04:00 -2°C° 0 mm 1 mps 608 mmHg 80%
    05:00 -2°C° 0 mm 1 mps 608 mmHg 80%
    06:00 -2°C° 0 mm 1 mps 608 mmHg 80%
    07:00 -1°C° 0 mm 1 mps 609 mmHg 78%
    08:00 0°C° 0 mm 1 mps 609 mmHg 77%
    09:00 0°C° 0 mm 1 mps 609 mmHg 76%
    10:00 +1°C° 0 mm 1 mps 609 mmHg 74%
    11:00 +2°C° 0 mm 1 mps 609 mmHg 72%
    12:00 +2°C° 0 mm 2 mps 609 mmHg 71%
    13:00 +2°C° 0 mm 2 mps 609 mmHg 70%
    14:00 +3°C° 0 mm 2 mps 608 mmHg 69%
    15:00 +3°C° 0 mm 2 mps 608 mmHg 67%
    16:00 +3°C° 0 mm 1 mps 608 mmHg 70%
    17:00 +2°C° 0 mm 1 mps 608 mmHg 73%
    18:00 0°C° 0 mm 1 mps 607 mmHg 75%
    19:00 0°C° 0 mm 1 mps 607 mmHg 75%
    20:00 0°C° 0 mm 1 mps 607 mmHg 75%
    21:00 -1°C° 0 mm 1 mps 608 mmHg 74%
    22:00 -1°C° 0 mm 1 mps 608 mmHg 74%
    23:00 -1°C° 0 mm 1 mps 608 mmHg 73%

    Day after tomorrow, 23 February, Friday

    Time Temperature Precipitation Wind Pressure Humidity
    00:00 -1°C° 0 mm 1 mps 608 mmHg 73%
    01:00 -2°C° 0 mm 1 mps 607 mmHg 72%
    02:00 -2°C° 0 mm 1 mps 607 mmHg 72%
    03:00 -3°C° 0 mm 0 mps 607 mmHg 72%
    04:00 -2°C° 0 mm 1 mps 607 mmHg 72%
    05:00 -2°C° 0 mm 1 mps 607 mmHg 71%
    06:00 -2°C° 0 mm 1 mps 607 mmHg 71%
    07:00 -1°C° 0 mm 1 mps 607 mmHg 70%
    08:00 0°C° 0 mm 1 mps 608 mmHg 68%
    09:00 0°C° 0 mm 0 mps 609 mmHg 66%
    10:00 +2°C° 0 mm 1 mps 608 mmHg 67%
    11:00 +3°C° 0 mm 1 mps 608 mmHg 68%
    12:00 +4°C° 0 mm 1 mps 608 mmHg 69%
    13:00 +4°C° 0 mm 1 mps 608 mmHg 68%
    14:00 +4°C° 0 mm 1 mps 607 mmHg 66%
    15:00 +4°C° 0 mm 1 mps 607 mmHg 65%
    16:00 +3°C° 0 mm 1 mps 607 mmHg 68%
    17:00 +2°C° 0 mm 1 mps 606 mmHg 71%
    18:00 -1°C° 0 mm 0 mps 606 mmHg 75%
    19:00 -1°C° 0 mm 0 mps 606 mmHg 76%
    20:00 -2°C° 0 mm 0 mps 606 mmHg 77%
    21:00 -2°C° 0 mm 0 mps 606 mmHg 78%
    22:00 -2°C° 0 mm 0 mps 606 mmHg 78%
    23:00 -1°C° 0 mm 1 mps 606 mmHg 77%

    24 February, Saturday

    Time Temperature Precipitation Wind Pressure Humidity
    00:00 -2°C° 0 mm 1 mps 606 mmHg 77%
    01:00 -2°C° 0 mm 1 mps 606 mmHg 76%
    02:00 -2°C° 0 mm 1 mps 606 mmHg 75%
    03:00 -2°C° 0 mm 1 mps 606 mmHg 74%
    04:00 -2°C° 0 mm 1 mps 606 mmHg 73%
    05:00 -3°C° 0 mm 1 mps 606 mmHg 73%
    06:00 -3°C° 0 mm 1 mps 606 mmHg 72%
    07:00 -2°C° 0 mm 1 mps 606 mmHg 70%
    08:00 0°C° 0 mm 1 mps 607 mmHg 69%
    09:00 +1°C° 0 mm 1 mps 607 mmHg 67%
    10:00 +2°C° 0 mm 1 mps 607 mmHg 65%
    11:00 +2°C° 0 mm 2 mps 607 mmHg 64%
    12:00 +3°C° 0 mm 2 mps 607 mmHg 62%
    13:00 +3°C° 0 mm 2 mps 607 mmHg 61%
    14:00 +3°C° 0 mm 2 mps 607 mmHg 60%
    15:00 +3°C° 0 mm 2 mps 606 mmHg 60%
    16:00 +2°C° 0 mm 2 mps 606 mmHg 62%
    17:00 +2°C° 0 mm 1 mps 606 mmHg 65%
    18:00 0°C° 0 mm 1 mps 606 mmHg 68%
    19:00 0°C° 0 mm 1 mps 606 mmHg 68%
    20:00 -1°C° 0 mm 1 mps 606 mmHg 69%
    21:00 -1°C° 0 mm 1 mps 606 mmHg 70%
    22:00 -1°C° 0 mm 1 mps 606 mmHg 69%
    23:00 -2°C° 0 mm 1 mps 606 mmHg 69%

    25 February, Sunday

    Time Temperature Precipitation Wind Pressure Humidity
    00:00 -2°C° 0 mm 1 mps 606 mmHg 69%
    01:00 -2°C° 0 mm 1 mps 606 mmHg 69%
    02:00 -2°C° 0 mm 1 mps 606 mmHg 69%
    03:00 -2°C° 0 mm 1 mps 606 mmHg 69%
    04:00 -3°C° 0 mm 1 mps 606 mmHg 69%
    05:00 -3°C° 0 mm 1 mps 606 mmHg 69%
    06:00 -5°C° 0 mm 2 mps 606 mmHg 68%
    07:00 -4°C° 0 mm 2 mps 606 mmHg 66%
    08:00 -2°C° 0 mm 2 mps 607 mmHg 64%
    09:00 -1°C° 0 mm 2 mps 607 mmHg 62%
    10:00 +1°C° 0 mm 2 mps 607 mmHg 61%
    11:00 +2°C° 0 mm 2 mps 607 mmHg 59%
    12:00 +2°C° 0 mm 3 mps 607 mmHg 58%
    13:00 +2°C° 0 mm 3 mps 607 mmHg 57%
    14:00 +2°C° 0 mm 3 mps 606 mmHg 57%
    15:00 +2°C° 0 mm 3 mps 606 mmHg 56%
    16:00 +2°C° 0 mm 2 mps 606 mmHg 59%
    17:00 +1°C° 0 mm 2 mps 605 mmHg 62%
    18:00 -1°C° 0 mm 2 mps 605 mmHg 64%
    19:00 -1°C° 0 mm 2 mps 605 mmHg 65%
    20:00 -2°C° 0 mm 2 mps 605 mmHg 66%
    21:00 -2°C° 0 mm 2 mps 605 mmHg 67%
    22:00 -2°C° 0.1 mm 2 mps 605 mmHg 68%
    23:00 -2°C° 0.1 mm 2 mps 605 mmHg 69%

    26 February, Monday

    Time Temperature Precipitation Wind Pressure Humidity
    00:00 -2°C° 0.1 mm 2 mps 605 mmHg 71%
    01:00 -2°C° 0.1 mm 2 mps 605 mmHg 72%
    02:00 -2°C° 0.1 mm 2 mps 605 mmHg 72%
    03:00 -2°C° 0.1 mm 2 mps 605 mmHg 73%
    04:00 -3°C° 0.1 mm 2 mps 605 mmHg 74%
    05:00 -3°C° 0.1 mm 2 mps 604 mmHg 74%
    06:00 -3°C° 0.1 mm 2 mps 604 mmHg 74%
    07:00 -2°C° 0.1 mm 2 mps 604 mmHg 73%
    08:00 -1°C° 0.1 mm 2 mps 605 mmHg 72%
    09:00 +1°C° 0.1 mm 2 mps 605 mmHg 70%
    10:00 0°C° 0.1 mm 3 mps 605 mmHg 69%
    11:00 +1°C° 0.1 mm 3 mps 605 mmHg 68%
    12:00 +2°C° 0.1 mm 3 mps 605 mmHg 67%
    13:00 +2°C° 0.2 mm 3 mps 605 mmHg 67%
    14:00 +2°C° 0.2 mm 3 mps 604 mmHg 67%
    15:00 +2°C° 0.2 mm 3 mps 604 mmHg 67%
    16:00 +2°C° 0.2 mm 2 mps 604 mmHg 70%
    17:00 +1°C° 0.2 mm 2 mps 604 mmHg 73%
    18:00 +1°C° 0.2 mm 2 mps 604 mmHg 76%
    19:00 +1°C° 0.2 mm 1 mps 605 mmHg 77%
    20:00 +1°C° 0.2 mm 1 mps 605 mmHg 78%
    21:00 +1°C° 0.2 mm 1 mps 605 mmHg 80%
    22:00 0°C° 0 mm 1 mps 605 mmHg 80%
    23:00 0°C° 0 mm 1 mps 605 mmHg 81%
    Show more